This is the latest recevied weather packets stored in our database for station/object KC5CAM-13. If no packets are shown the sender has not sent any weather packets the latest 10 day(s).
| Time | Temp. | Humidity | Pressure | Rain* | Wind** | Luminosity | Snow |
|---|---|---|---|---|---|---|---|
| 1777937674 | 26.11° C | 64% | 1006.2 hPa | 0 mm | - | 120 W/m² | - |
| 1777937371 | 26.67° C | 64% | 1006.3 hPa | 0 mm | - | 127 W/m² | - |
| 1777937068 | 26.11° C | 64% | 1006.5 hPa | 0 mm | - | 138 W/m² | - |
| 1777936765 | 26.67° C | 63% | 1006.7 hPa | 0 mm | - | 109 W/m² | - |
| 1777936461 | 26.67° C | 63% | 1006.4 hPa | 0 mm | - | 112 W/m² | - |
| 1777936158 | 26.67° C | 63% | 1006.4 hPa | 0 mm | - | 118 W/m² | - |
| 1777935855 | 26.67° C | 63% | 1006.7 hPa | 0 mm | - | 132 W/m² | - |
| 1777935554 | 26.67° C | 62% | 1006.6 hPa | 0 mm | - | 144 W/m² | - |
| 1777935250 | 26.67° C | 62% | 1006.7 hPa | 0 mm | - | 143 W/m² | - |
| 1777934948 | 27.22° C | 62% | 1006.7 hPa | 0 mm | - | 206 W/m² | - |
| 1777934644 | 27.78° C | 60% | 1006.8 hPa | 0 mm | - | 280 W/m² | - |
| 1777934341 | 27.78° C | 61% | 1006.9 hPa | 0 mm | - | 279 W/m² | - |
| 1777934036 | 27.22° C | 61% | 1006.7 hPa | 0 mm | - | 311 W/m² | - |
| 1777933733 | 27.78° C | 61% | 1006.7 hPa | 0 mm | - | 284 W/m² | - |
| 1777933430 | 27.22° C | 62% | 1006.8 hPa | 0 mm | - | 317 W/m² | - |
| 1777933128 | 27.22° C | 61% | 1006.9 hPa | 0 mm | - | 278 W/m² | - |
| 1777932825 | 27.78° C | 61% | 1007 hPa | 0 mm | - | 317 W/m² | - |
| 1777932522 | 27.78° C | 61% | 1006.8 hPa | 0 mm | - | 368 W/m² | - |
| 1777932218 | 27.78° C | 60% | 1006.9 hPa | 0 mm | - | 352 W/m² | - |
| 1777931916 | 27.78° C | 60% | 1006.9 hPa | 0 mm | - | 362 W/m² | - |
| 1777931612 | 27.22° C | 62% | 1006.9 hPa | 0 mm | - | 366 W/m² | - |
| 1777931308 | 27.22° C | 60% | 1007 hPa | 0 mm | - | 311 W/m² | - |
| 1777931005 | 27.78° C | 59% | 1007.1 hPa | 0 mm | - | 290 W/m² | - |
| 1777930702 | 27.78° C | 60% | 1007.2 hPa | 0 mm | - | 416 W/m² | - |
| 1777930398 | 27.78° C | 61% | 1007.7 hPa | 0 mm | - | 503 W/m² | - |
* Rain latest hour (hover to see other rain measurements)
** Current wind speed in m/s (hover to see current wind gust speed)